User: anonymous
Location: Unspecified
(0.0000°N, 0.0000°E)
Time: 06:32:30
(UTC+02:00)
Language:

Cosmos 1758 - Orbit

View from above orbital plane
View from above orbital plane
View from above satellite
View from above satellite

Ground track
Ground track

The orbit data is extracted from the following two-line orbital elements,

1 16791U 86046A   14110.17061445  .00007493  00000-0  58684-3 0    81
2 16791 082.4715 074.1450 0019459 052.2388 308.0595 15.00730674512326
Epoch (UTC): 20 April 2014 04:05:41
Eccentricity: 0.0019459
inclination: 82.4715°
perigee height: 551 km
apogee height: 578 km
right ascension of ascending node: 74.1450°
argument of perigee: 52.2388°
revolutions per day: 15.00730674
mean anomaly at epoch: 308.0595°
orbit number at epoch: 51232

The dashed part of the orbit path shows where the satellite is in the earth's shadow,  

DLR